Location: ??????
(41.3164°N, 22.6615°E)
Time: 22:04:16
(UTC+00:00)

ARGOS - Pass Details

Date: 16 October 2021
Orbit: 820 x 835 km, 98.4° (Epoch: 29 November)

Event Time Altitude Azimuth Distance (km) Brightness Sun altitude
Rises 17:26:24 0° 181° (S) 3,346 6.3 -19.4°
Reaches altitude 10° 17:28:48 10° 186° (S) 2,420 5.6 -19.9°
Maximum altitude 17:33:59 48° 261° (W) 1,070 4.1 -20.9°
Drops below altitude 10° 17:39:13 10° 335° (NNW) 2,446 6.0 -21.8°
Sets 17:41:41 0° 341° (NNW) 3,386 6.7 -22.3°
